Springfield, IL

12:09 AM CST on January 20, 2017 (GMT -0600)
Capital

Weather History for KSPI - August, 2014

Change the Weather History Date:

Saturday, August 9, 2014

  Actual Average Record
Temperature  
Mean Temperature 72 °F 75 °F  
Max Temperature 76 °F 85 °F 108 °F (1934)
Min Temperature 68 °F 65 °F 49 °F (1972)
Degree Days  
Heating Degree Days 0 0  
Month to date heating degree days 0 0  
Since 1 June heating degree days 3 16  
Since 1 July heating degree days 3 1  
Cooling Degree Days 7 10  
Month to date cooling degree days 70 90  
Year to date cooling degree days 764 769  
Since 1 June cooling degree days 588 665  
Growing Degree Days 22 (Base 50)    
Moisture  
Dew Point 66 °F    
Average Humidity 85    
Maximum Humidity 97    
Minimum Humidity 73    
Precipitation  
Precipitation 0.02 in 0.11 in 1.84 in (1974)
Month to date precipitation 1.44 1.01  
Year to date precipitation 27.13 23.42  
Snow  
Snow 0.00 in 0.00 in 0.00 in ()
Month to date snowfall 0.0 0.0  
Since 1 June snowfall 0.0 0.0  
Since 1 July snowfall 0.0 0.0  
Snow Depth 0.00 in    
Sea Level Pressure  
Sea Level Pressure 30.01 in    
Wind  
Wind Speed 7 mph (ENE)    
Max Wind Speed 13 mph    
Max Gust Speed 15 mph    
Visibility 9 miles    
Events Rain    
T = Trace of Precipitation, MM = Missing Value Source: NWS Daily Summary

Daily Weather History Graph

Daily Weather History Graph

Search for Another Location

Airport or City:

Trip Planner

Search our weather history database for the weather conditions in past years. The results will help you decide how hot, cold, wet, or windy it might be!

Date:

Astronomy

Aug. 09, 2014 Rise Set
Actual Time 6:04 AM CDT 8:02 PM CDT
Civil Twilight 5:35 AM CDT 8:32 PM CDT
Nautical Twilight 4:59 AM CDT 9:07 PM CDT
Astronomical Twilight 4:20 AM CDT 9:46 PM CDT
Moon 7:04 PM CDT (8/9) 4:45 AM CDT (8/9)
Length of Visible Light 14h 56m
Length of Day
13h 57m
Waxing Gibbous, 98% of the Moon is Illuminated
Aug 9
Waxing Gibbous
Aug 10
Full
Aug 17
Last Quarter
Aug 25
New
Sep 2
First Quarter

Hourly Weather History & Observations

Time (CDT) Temp. Dew Point Humidity Pressure Visibility Wind Dir Wind Speed Gust Speed Precip Events Conditions
12:33 AM 68.0 °F 64.9 °F 90% 29.99 in 10.0 mi ENE 8.1 mph - N/A   Overcast
12:52 AM 68.0 °F 64.9 °F 90% 29.99 in 9.0 mi ENE 4.6 mph - N/A   Overcast
1:11 AM 68.0 °F 64.9 °F 90% 30.00 in 9.0 mi Calm Calm - N/A   Overcast
1:52 AM 68.0 °F 66.0 °F 93% 29.99 in 8.0 mi NNE 4.6 mph - N/A   Overcast
2:52 AM 68.0 °F 66.0 °F 93% 29.98 in 8.0 mi ENE 5.8 mph - N/A   Overcast
3:52 AM 68.0 °F 64.9 °F 90% 29.98 in 10.0 mi East 8.1 mph - N/A   Overcast
4:52 AM 69.1 °F 64.0 °F 84% 29.98 in 10.0 mi East 11.5 mph - N/A   Overcast
5:52 AM 68.0 °F 64.0 °F 87% 29.99 in 10.0 mi East 5.8 mph - N/A   Overcast
6:14 AM 68.0 °F 64.0 °F 87% 30.00 in 10.0 mi ENE 5.8 mph - N/A   Overcast
6:52 AM 68.0 °F 64.0 °F 87% 30.00 in 10.0 mi ENE 3.5 mph - N/A   Overcast
7:17 AM 69.1 °F 64.0 °F 84% 30.01 in 10.0 mi ENE 6.9 mph - N/A   Overcast
7:52 AM 69.8 °F 64.4 °F 83% 30.01 in 10.0 mi ENE 6.9 mph - N/A   Overcast
8:17 AM 70.0 °F 63.0 °F 78% 30.02 in 10.0 mi ENE 6.9 mph - N/A   Mostly Cloudy
8:52 AM 72.0 °F 64.0 °F 76% 30.02 in 10.0 mi ENE 8.1 mph - N/A   Overcast
9:52 AM 73.0 °F 64.9 °F 76% 30.02 in 10.0 mi East 11.5 mph - N/A   Overcast
10:30 AM 73.0 °F 64.9 °F 76% 30.04 in 10.0 mi ENE 9.2 mph - N/A   Overcast
10:52 AM 73.9 °F 66.0 °F 76% 30.02 in 10.0 mi ENE 10.4 mph - N/A   Overcast
11:52 AM 73.9 °F 66.9 °F 79% 30.03 in 10.0 mi NE 8.1 mph - N/A   Overcast
12:52 PM 73.9 °F 66.9 °F 79% 30.02 in 10.0 mi ENE 10.4 mph - N/A   Overcast
1:52 PM 75.0 °F 66.9 °F 76% 30.02 in 10.0 mi East 6.9 mph - N/A   Overcast
2:52 PM 75.9 °F 68.0 °F 76% 30.01 in 10.0 mi ENE 5.8 mph - N/A   Overcast
3:52 PM 75.9 °F 68.0 °F 76% 30.00 in 10.0 mi East 8.1 mph - N/A   Overcast
4:52 PM 75.9 °F 68.0 °F 76% 29.99 in 10.0 mi East 8.1 mph - N/A   Overcast
5:15 PM 75.0 °F 68.0 °F 79% 30.00 in 10.0 mi East 5.8 mph - N/A   Overcast
5:52 PM 75.0 °F 69.1 °F 82% 30.00 in 10.0 mi East 5.8 mph - N/A   Overcast
6:52 PM 73.0 °F 69.1 °F 87% 30.01 in 8.0 mi SE 4.6 mph - 0.00 in Rain Light Rain
7:52 PM 72.0 °F 69.1 °F 91% 30.02 in 8.0 mi SE 3.5 mph - 0.00 in   Overcast
8:52 PM 71.1 °F 69.1 °F 93% 30.01 in 4.0 mi ENE 5.8 mph - 0.00 in Rain Light Rain
9:52 PM 71.6 °F 69.8 °F 94% 30.01 in 9.0 mi NE 4.6 mph - N/A   Overcast
10:52 PM 71.6 °F 69.8 °F 94% 30.01 in 8.0 mi ENE 4.6 mph - N/A   Overcast
11:31 PM 71.1 °F 68.0 °F 90% 30.02 in 7.0 mi East 9.2 mph - N/A   Overcast
11:52 PM 70.0 °F 68.0 °F 93% 30.01 in 4.0 mi East 9.2 mph - N/A   Overcast